Terminal Aerodrome Forecast
Issued by NWS Salt Lake City, UT

Home | Current Version | Previous Version | Text Only | Print | Product List | Glossary On
Versions: 1 2 3 4 5 6 7 8 9 10 11 12 13 14 15 16 17 18 19 20 21 22 23 24 25 26 27 28 29 30 31 32 33 34 35 36 37 38 39 40 41 42 43 44 45 46 47 48 49 50
000
FTUS45 KSLC 300857 AAB
TAFSLC
TAF AMD
KSLC 300857Z 3009/3112 10007KT P6SM VCSH SCT025 BKN030 OVC050
     FM301000 18005KT P6SM SCT090 BKN140
     FM301600 35007KT P6SM SCT050 BKN100
     FM302100 34012G18KT P6SM FEW110 SCT140
     FM310500 15005KT P6SM SCT140=

USA.gov is the U.S. government's official web portal to all federal, state and local government web resources and services.